Weather History for KPMD - October, 2013

Change the Weather History Date:

Saturday, October 12, 2013

  Actual Average Record
Temperature  
Mean Temperature 60 °F 65 °F  
Max Temperature 76 °F 80 °F 96 °F (1950)
Min Temperature 44 °F 49 °F 31 °F (2008)
Degree Days  
Heating Degree Days 5 3  
Month to date heating degree days 54 22  
Since 1 July heating degree days 68 34  
Cooling Degree Days 0 2  
Month to date cooling degree days 10 40  
Year to date cooling degree days 2124 1797  
Growing Degree Days 10 (Base 50)    
Moisture  
Dew Point 34 °F    
Average Humidity 43    
Maximum Humidity 70    
Minimum Humidity 16    
Precipitation  
Precipitation 0.00 in 0.02 in 0.16 in (1941)
Month to date precipitation 0.08 0.16  
Year to date precipitation 1.07 6.01  
Since 1 July precipitation 0.21 0.69  
Snow  
Snow 0.00 in - 0.00 in (1973)
Month to date snowfall 0.0  
Since 1 July snowfall 0.0  
Since 1 September snowfall 0.0  
Snow Depth 0.00 in    
Sea Level Pressure  
Sea Level Pressure 29.92 in    
Wind  
Wind Speed 10 mph (SW)    
Max Wind Speed 24 mph    
Max Gust Speed 31 mph    
Visibility 10 miles    
Events      
T = Trace of Precipitation, MM = Missing Value Source: NWS Daily Summary

Daily Weather History Graph

Daily Weather History Graph

Search for Another Location

Airport or City:

Trip Planner

Search our weather history database for the weather conditions in past years. The results will help you decide how hot, cold, wet, or windy it might be!

Date:

Astronomy

Oct. 12, 2013 Rise Set
Actual Time 6:55 AM PDT 6:21 PM PDT
Civil Twilight 6:30 AM PDT 6:46 PM PDT
Nautical Twilight 6:01 AM PDT 7:15 PM PDT
Astronomical Twilight 5:32 AM PDT 7:44 PM PDT
Moon 2:20 PM PDT (10/12) 12:19 AM PDT (10/12)
Length of Visible Light 12h 15m
Length of Day
11h 25m
First Quarter, 60% of the Moon is Illuminated
Oct 12
First Quarter
Oct 18
Full
Oct 26
Last Quarter
Nov 3
New
Nov 9
First Quarter

Hourly Weather History & Observations

Time (PDT) Temp. Windchill Dew Point Humidity Pressure Visibility Wind Dir Wind Speed Gust Speed Precip Events Conditions
12:53 AM 52.0 °F - 39.0 °F 61% 29.96 in 10.0 mi SSW 8.1 mph - N/A   Clear
1:53 AM 50.0 °F - 37.0 °F 61% 29.96 in 10.0 mi SSW 6.9 mph - N/A   Clear
2:53 AM 51.1 °F - 36.0 °F 56% 29.94 in 10.0 mi South 9.2 mph - N/A   Clear
3:53 AM 48.9 °F - 35.1 °F 59% 29.94 in 10.0 mi SSW 5.8 mph - N/A   Clear
4:53 AM 48.0 °F - 36.0 °F 63% 29.95 in 10.0 mi WNW 4.6 mph - N/A   Clear
5:53 AM 45.0 °F 43.5 °F 34.0 °F 65% 29.96 in 10.0 mi SSW 3.5 mph - N/A   Clear
6:53 AM 45.0 °F 43.5 °F 35.1 °F 68% 29.96 in 10.0 mi South 3.5 mph - N/A   Clear
7:53 AM 48.9 °F - 36.0 °F 61% 29.98 in 10.0 mi South 4.6 mph - N/A   Clear
8:53 AM 57.0 °F - 35.1 °F 44% 29.98 in 10.0 mi Calm Calm - N/A   Clear
9:53 AM 61.0 °F - 35.1 °F 38% 29.98 in 10.0 mi North 4.6 mph - N/A   Clear
10:53 AM 66.0 °F - 34.0 °F 30% 29.96 in 10.0 mi Variable 3.5 mph - N/A   Clear
11:53 AM 71.1 °F - 32.0 °F 24% 29.94 in 10.0 mi NNE 3.5 mph - N/A   Clear
12:53 PM 73.9 °F - 30.9 °F 21% 29.91 in 10.0 mi WSW 8.1 mph - N/A   Clear
1:53 PM 75.0 °F - 26.1 °F 16% 29.88 in 10.0 mi WSW 11.5 mph 19.6 mph N/A   Clear
2:53 PM 75.9 °F - 26.1 °F 16% 29.86 in 10.0 mi West 13.8 mph - N/A   Clear
3:53 PM 75.9 °F - 26.1 °F 16% 29.84 in 10.0 mi WSW 16.1 mph - N/A   Clear
4:53 PM 73.9 °F - 34.0 °F 23% 29.84 in 10.0 mi WSW 19.6 mph 27.6 mph N/A   Clear
5:53 PM 70.0 °F - 36.0 °F 29% 29.86 in 10.0 mi SW 24.2 mph - N/A   Clear
6:53 PM 66.0 °F - 37.0 °F 34% 29.87 in 10.0 mi SW 21.9 mph 27.6 mph N/A   Clear
7:53 PM 64.0 °F - 35.1 °F 34% 29.88 in 10.0 mi WSW 10.4 mph - N/A   Clear
8:53 PM 62.1 °F - 35.1 °F 37% 29.88 in 10.0 mi WSW 6.9 mph - N/A   Clear
9:53 PM 61.0 °F - 37.9 °F 42% 29.90 in 10.0 mi SW 13.8 mph - N/A   Clear
10:53 PM 60.1 °F - 34.0 °F 38% 29.89 in 10.0 mi West 5.8 mph - N/A   Clear
11:53 PM 63.0 °F - 28.0 °F 27% 29.87 in 10.0 mi SW 23.0 mph 31.1 mph N/A   Clear